Location: Dealu Mare
(46.0500°N, 22.8167°E)
Time: 14:11:37
(UTC+00:00)

ATLAS 2AS CENTAUR R/B - Visible Passes

Search period start: 11 April 2026 00:00
Search period end: 21 April 2026 00:00
Orbit: 1051 x 1159 km, 63.7° (Epoch: 11 April)

Date Brightness Start Highest point End Pass type
(mag) Time Alt. Az. Time Alt. Az. Time Alt. Az.
11 Apr 2.6 01:03:36 56° WSW 01:05:12 79° NW 01:12:04 10° NE visible
11 Apr 4.0 02:51:24 10° W 02:57:08 27° NNW 03:02:47 10° NNE visible
11 Apr 4.8 22:32:27 13° E 22:32:27 13° E 22:33:50 10° ENE visible
12 Apr 2.6 00:19:51 71° SE 00:20:09 72° SE 00:26:59 10° NE visible
12 Apr 3.7 02:07:15 18° W 02:11:36 34° NW 02:17:45 10° NNE visible
12 Apr 3.3 23:36:05 46° E 23:36:05 46° E 23:41:45 10° NE visible
13 Apr 3.3 01:23:29 32° W 01:26:11 46° NW 01:32:45 10° NNE visible
13 Apr 4.5 03:13:57 10° WNW 03:18:51 20° NNW 03:23:42 10° NNE visible
13 Apr 4.0 22:52:16 27° E 22:52:16 27° E 22:56:18 10° NE visible
14 Apr 2.8 00:39:40 55° W 00:40:56 65° NW 00:47:44 10° NE visible
14 Apr 4.3 02:27:43 10° WNW 02:33:07 24° NNW 02:38:29 10° NNE visible
14 Apr 4.6 22:08:24 16° E 22:08:24 16° E 22:10:25 10° ENE visible
14 Apr 2.6 23:55:48 88° SE 23:55:48 88° SE 00:02:41 10° NE visible
15 Apr 4.0 01:43:12 16° W 01:47:31 30° NNW 01:53:24 10° NNE visible
15 Apr 3.1 23:11:55 54° E 23:11:55 54° E 23:17:33 10° NE visible
16 Apr 3.6 00:59:19 28° W 01:02:03 39° NW 01:08:23 10° NNE visible
16 Apr 4.6 02:50:17 10° NW 02:54:57 19° N 02:59:34 10° NNE visible
16 Apr 3.8 22:27:59 32° E 22:27:59 32° E 22:32:14 10° NE visible
17 Apr 3.1 00:15:23 47° W 00:16:42 53° NW 00:23:24 10° NNE visible
17 Apr 4.5 02:04:03 10° WNW 02:09:10 21° NNW 02:14:15 10° NNE visible
17 Apr 4.4 21:44:01 20° ENE 21:44:01 20° ENE 21:46:38 10° ENE visible
17 Apr 2.6 23:31:24 76° WNW 23:31:30 76° NW 23:38:22 10° NE visible
18 Apr 4.2 01:18:47 13° WNW 01:23:30 26° NNW 01:29:05 10° NNE visible
18 Apr 4.8 21:00:00 11° ENE 21:00:00 11° ENE 21:00:22 10° ENE visible
18 Apr 2.8 22:47:23 65° ENE 22:47:23 65° ENE 22:53:17 10° NE visible
19 Apr 3.9 00:34:46 23° WNW 00:37:56 33° NNW 00:44:02 10° NNE visible
19 Apr 4.8 02:26:34 10° NW 02:31:03 18° N 02:35:30 10° NE visible
19 Apr 3.4 22:03:19 41° ENE 22:03:19 41° ENE 22:08:05 10° NE visible
19 Apr 3.4 23:50:42 37° WNW 23:52:32 45° NW 23:59:02 10° NNE visible
20 Apr 4.7 01:40:24 10° WNW 01:45:14 20° NNW 01:50:03 10° NNE visible
20 Apr 4.0 21:19:12 26° ENE 21:19:12 26° ENE 21:22:40 10° NE visible
20 Apr 2.9 23:06:35 59° WNW 23:07:15 62° NW 23:14:02 10° NE visible
